User: anonymous   Login
Location: Bastogne Gables
(35.1554°N, 78.9900°W)
Time: 14:06:59
(UTC+00:00)
Language:

Okean-O - Orbit

View from above orbital plane
View from above orbital plane
View from above satellite
View from above satellite

Ground track
Ground track

The orbit data is extracted from the following two-line orbital elements,

1 25860U 99039A   21016.82014812  .00000037  00000-0  12954-4 0  9992
2 25860  98.1990  45.3566 0000734  93.9424 266.1869 14.76705958157006
Epoch (UTC): 16 January 2021 19:41:00
Eccentricity: 0.0000734
inclination: 98.1990°
perigee height: 639 km
apogee height: 640 km
right ascension of ascending node: 45.3566°
argument of perigee: 93.9424°
revolutions per day: 14.76705958
mean anomaly at epoch: 266.1869°
orbit number at epoch: 15700

The dashed part of the orbit path shows where the satellite is in the earth's shadow,  

DLR